Location: Recife
(8.0585°S, 34.8848°W)
Time: 12:37:27
(UTC-03:00)

Tiros 1 - Pass Details

Date: 18 April 2026
Orbit: 618 x 648 km, 48.4° (Epoch: 11 May)

Event Time Altitude Azimuth Distance (km) Brightness Sun altitude
Rises 04:48:21 0° 203° (SSW) 2,905 10.2 -9.0°
Reaches altitude 10° 04:50:57 10° 191° (S) 1,991 9.5 -8.3°
Maximum altitude 04:54:53 28° 132° (SE) 1,164 9.0 -7.4°
Drops below altitude 10° 04:58:47 10° 72° (ENE) 1,973 11.4 -6.4°
Sets 05:01:20 0° 60° (ENE) 2,873 12.1 -5.8°
